Location: Golden Pond Observatory
(36.7773°N, 88.0631°W)
Time: 05:43:54
(UTC-06:00)

Envisat - Visible Passes

Search period start: 21 January 2021 00:00
Search period end: 31 January 2021 00:00
Orbit: 764 x 766 km, 98.1° (Epoch: 20 January)

Date Brightness Start Highest point End Pass type
(mag) Time Alt. Az. Time Alt. Az. Time Alt. Az.
21 Jan 5.7 04:29:49 10° NE 04:33:07 17° E 04:36:24 10° SE visible
21 Jan 3.2 06:07:29 10° N 06:12:21 48° WNW 06:17:11 10° SW visible
22 Jan 3.2 05:30:32 10° NNE 05:35:37 74° ESE 05:40:41 10° S visible
22 Jan 6.6 18:26:14 10° W 18:27:05 10° W 18:27:56 10° W visible
23 Jan 4.8 04:54:13 10° NE 04:58:42 31° E 05:03:09 10° SSE visible
23 Jan 5.6 17:45:46 10° SSW 17:49:55 26° W 17:54:08 10° NW visible
24 Jan 6.1 04:19:16 10° ENE 04:21:36 13° E 04:23:55 10° ESE visible
24 Jan 3.0 05:55:58 10° N 06:00:59 62° WNW 06:05:59 10° SSW visible
25 Jan 3.7 05:19:12 10° NNE 05:24:12 57° E 05:29:11 10° S visible
25 Jan 6.2 18:12:58 10° WSW 18:15:33 14° W 18:18:09 10° WNW visible
26 Jan 5.3 04:43:08 10° NE 04:47:13 24° E 04:51:17 10° SSE visible
26 Jan 3.6 06:21:42 10° N 06:26:15 34° WNW 06:30:48 10° SW visible
26 Jan 5.1 17:33:56 10° SSW 17:38:27 33° W 17:43:01 10° NNW visible
27 Jan 2.9 05:44:30 10° N 05:49:36 80° WNW 05:54:40 10° SSW visible
28 Jan 4.2 05:07:54 10° NNE 05:12:46 43° E 05:17:34 10° S visible
28 Jan 6.0 18:00:36 10° SW 18:04:02 18° W 18:07:30 10° NW visible
29 Jan 5.6 04:32:11 10° NE 04:35:44 19° E 04:39:15 10° SE visible
29 Jan 3.3 06:10:06 10° N 06:14:54 44° WNW 06:19:42 10° SW visible
30 Jan 3.1 05:33:05 10° NNE 05:38:12 80° ESE 05:43:16 10° S visible
